Home > Time Zones > World Clock > Weather > U.S.A. > Napa > Past weeks

Flag for U.S.A. Weather past 2 weeks in Napa, California, U.S.A.

Now
64 °F

Sunny.


Feels Like: 64 °F
Forecast: 56 / 91 °F
Wind: 6 mph from North

Location: Napa County Airport

Current Time: Aug 1, 2014 at 9:19:43 AM

Latest Report: Aug 1, 2014 at 8:54 AM


Visibility: 10 mi

Pressure: 29.88 "Hg

Humidity: 78%

Dew point: 57 °F

Location of NapaLocation

Historic Weather in Napa — Graph

°F

Napa temperature yesterday

Maximum temperature yesterday: 78 °F (at 3:54 PM)
Minimum temperature yesterday: 55 °F (at 1:54 AM)
Average temperature yesterday: 64 °F

Past Weeks' High & Low Weather Summary

 TemperatureHumidityPressure
High95 °F (Jul 25, 2:54 PM)100% (Jul 20, 3:54 AM)30.10 "Hg (Jul 20, 3:54 AM)
Low50 °F (Jul 24, 5:54 AM)16% (Jul 25, 2:54 PM)29.78 "Hg (Jul 25, 4:54 PM)
Average66 °F75%29.94 "Hg
* Reported Jul 17 7:01 AM — Aug 1 7:54 AM, Napa, Weather by CustomWeather, © 2014

Note: Actual official high and low records may vary slightly from our data, if they occured in-between our weather recording intervals... More about our weather records

Advertising

Napa weather history for previous 24 hours

 ConditionsComfort  
Time TempWeatherWind HumidityBarometerVisibility
7:54 AM
Aug 1
63 °FSunny.3 mph84%29.87 "Hg9 mi
6:54 AM55 °FFog.No wind100%29.87 "Hg5 mi
5:54 AM51 °FClear.No wind100%29.85 "Hg9 mi
4:54 AM51 °FClear.No wind100%29.86 "Hg8 mi
3:54 AM53 °FClear.3 mph100%29.86 "Hg10 mi
2:54 AM57 °FClear.No wind93%29.86 "Hg10 mi
1:54 AM56 °FClear.3 mph97%29.86 "Hg10 mi
12:54 AM58 °FClear.No wind93%29.86 "Hg10 mi
11:54 PM
Jul 31
59 °FClear.6 mph90%29.87 "Hg10 mi
10:54 PM61 °FClear.7 mph93%29.87 "Hg10 mi
9:54 PM62 °FClear.10 mph90%29.87 "Hg10 mi
8:54 PM64 °FSunny.12 mph87%29.85 "Hg10 mi
7:54 PM68 °FSunny.13 mph73%29.83 "Hg10 mi
6:54 PM72 °FSunny.12 mph66%29.83 "Hg10 mi
5:54 PM75 °FSunny.13 mph60%29.83 "Hg10 mi
4:54 PM75 °FSunny.13 mph60%29.85 "Hg10 mi
3:54 PM78 °FSunny.13 mph54%29.86 "Hg10 mi
2:54 PM76 °FSunny.10 mph58%29.88 "Hg10 mi
1:54 PM75 °FSunny.10 mph60%29.90 "Hg10 mi
12:54 PM72 °FSunny.8 mph66%29.92 "Hg10 mi
11:54 AM69 °FSunny.8 mph68%29.94 "Hg10 mi
10:57 AM66 °FScattered clouds.5 mph73%29.97 "Hg10 mi
9:54 AM61 °FLow clouds.5 mph83%29.96 "Hg10 mi
Weather by CustomWeather, © 2014

See weather overviewHow to use our weather pages